Time,TemperatureF,DewpointF,PressureIn,WindDirection,WindDirectionDegrees,WindSpeedMPH,WindSpeedGustMPH,Humidity,HourlyPrecipIn,Conditions,Clouds,dailyrainin,SoftwareType,DateUTC
2013-06-16 00:00:00,61.7,28.3,30.00,WSW,248,0.0,0.0,28,0.00,,---,0.00,VWS V14.01,2013-06-16 04:00:00,
2013-06-16 00:01:00,61.5,28.1,30.00,WSW,248,0.0,0.0,28,0.00,,---,0.00,VWS V14.01,2013-06-16 04:01:00,
2013-06-16 00:03:00,61.3,28.0,30.00,WSW,248,0.0,0.0,28,0.00,,---,0.00,VWS V14.01,2013-06-16 04:03:00,
2013-06-16 00:08:00,61.3,28.8,30.00,WSW,248,0.0,0.0,29,0.00,,---,0.00,VWS V14.01,2013-06-16 04:08:00,
2013-06-16 00:10:00,61.3,28.8,30.00,WSW,248,0.0,0.0,29,0.00,,---,0.00,VWS V14.01,2013-06-16 04:10:00,
2013-06-16 00:13:00,61.0,28.5,30.00,WSW,248,0.0,0.0,29,0.00,,---,0.00,VWS V14.01,2013-06-16 04:13:00,
2013-06-16 00:18:00,60.6,29.0,30.00,WSW,248,0.0,0.0,30,0.00,,---,0.00,VWS V14.01,2013-06-16 04:18:00,
2013-06-16 00:20:00,60.8,28.4,30.00,WSW,248,0.0,0.0,29,0.00,,---,0.00,VWS V14.01,2013-06-16 04:20:00,
2013-06-16 00:23:00,60.6,30.6,30.00,WSW,248,0.0,0.0,32,0.00,,---,0.00,VWS V14.01,2013-06-16 04:23:00,
2013-06-16 00:28:00,60.6,32.1,30.00,WSW,248,0.0,0.0,34,0.00,,---,0.00,VWS V14.01,2013-06-16 04:28:00,
2013-06-16 00:30:00,60.6,32.1,30.00,WSW,248,0.0,0.0,34,0.00,,---,0.00,VWS V14.01,2013-06-16 04:30:00,
2013-06-16 00:33:00,60.6,32.8,30.00,WSW,248,0.0,0.0,35,0.00,,---,0.00,VWS V14.01,2013-06-16 04:33:00,
2013-06-16 00:38:00,60.6,34.2,30.00,WSW,248,0.0,0.0,37,0.00,,---,0.00,VWS V14.01,2013-06-16 04:38:00,
2013-06-16 00:40:00,60.6,34.2,30.00,WSW,248,0.0,0.0,37,0.00,,---,0.00,VWS V14.01,2013-06-16 04:40:00,
2013-06-16 00:43:00,60.4,33.4,30.00,WSW,248,0.0,0.0,36,0.00,,---,0.00,VWS V14.01,2013-06-16 04:43:00,
2013-06-16 00:48:00,60.1,32.4,30.00,WSW,248,0.0,0.0,35,0.00,,---,0.00,VWS V14.01,2013-06-16 04:48:00,
2013-06-16 00:50:00,60.3,33.2,30.00,WSW,248,0.0,0.0,36,0.00,,---,0.00,VWS V14.01,2013-06-16 04:50:00,
2013-06-16 00:53:00,59.9,32.2,30.03,WSW,248,0.0,0.0,35,0.00,,---,0.00,VWS V14.01,2013-06-16 04:53:00,
2013-06-16 00:58:00,59.7,32.7,30.03,WSW,248,0.0,0.0,36,0.00,,---,0.00,VWS V14.01,2013-06-16 04:58:00,
2013-06-16 01:00:00,59.7,32.0,30.03,WSW,248,0.0,0.0,35,0.00,,---,0.00,VWS V14.01,2013-06-16 05:00:00,
2013-06-16 01:04:00,59.5,32.6,30.03,WSW,248,0.0,0.0,36,0.00,,---,0.00,VWS V14.01,2013-06-16 05:04:00,
2013-06-16 01:09:00,59.5,32.6,30.00,WSW,248,0.0,0.0,36,0.00,,---,0.00,VWS V14.01,2013-06-16 05:09:00,
2013-06-16 01:10:00,59.5,32.6,30.00,WSW,248,0.0,0.0,36,0.00,,---,0.00,VWS V14.01,2013-06-16 05:10:00,
2013-06-16 01:14:00,59.4,32.4,30.00,WSW,248,0.0,0.0,36,0.00,,---,0.00,VWS V14.01,2013-06-16 05:14:00,
2013-06-16 01:19:00,59.2,32.3,30.00,WSW,248,0.0,0.0,36,0.00,,---,0.00,VWS V14.01,2013-06-16 05:19:00,
2013-06-16 01:20:00,59.2,32.3,30.00,WSW,248,0.0,0.0,36,0.00,,---,0.00,VWS V14.01,2013-06-16 05:20:00,
2013-06-16 01:24:00,59.0,32.1,30.03,WSW,248,0.0,0.0,36,0.00,,---,0.00,VWS V14.01,2013-06-16 05:24:00,
2013-06-16 01:29:00,59.0,32.8,30.03,WSW,248,0.0,0.0,37,0.00,,---,0.00,VWS V14.01,2013-06-16 05:29:00,
2013-06-16 01:30:00,58.8,32.0,30.03,WSW,248,0.0,0.0,36,0.00,,---,0.00,VWS V14.01,2013-06-16 05:30:00,
2013-06-16 01:34:00,58.8,32.6,30.03,WSW,248,0.0,0.0,37,0.00,,---,0.00,VWS V14.01,2013-06-16 05:34:00,
2013-06-16 01:39:00,58.6,32.5,30.00,WSW,248,0.0,0.0,37,0.00,,---,0.00,VWS V14.01,2013-06-16 05:39:00,
2013-06-16 01:40:00,58.6,32.5,30.00,WSW,248,0.0,0.0,37,0.00,,---,0.00,VWS V14.01,2013-06-16 05:40:00,
2013-06-16 01:44:00,58.5,32.3,30.00,WSW,248,0.0,0.0,37,0.00,,---,0.00,VWS V14.01,2013-06-16 05:44:00,
2013-06-16 01:49:00,58.3,32.8,30.00,WSW,248,0.0,0.0,38,0.00,,---,0.00,VWS V14.01,2013-06-16 05:49:00,
2013-06-16 01:50:00,58.5,33.0,30.00,WSW,248,0.0,0.0,38,0.00,,---,0.00,VWS V14.01,2013-06-16 05:50:00,
2013-06-16 01:54:00,58.3,32.2,29.97,WSW,248,0.0,0.0,37,0.00,,---,0.00,VWS V14.01,2013-06-16 05:54:00,
2013-06-16 01:59:00,58.3,32.8,29.97,WSW,248,0.0,0.0,38,0.00,,---,0.00,VWS V14.01,2013-06-16 05:59:00,
2013-06-16 02:00:00,58.3,32.8,29.97,WSW,248,0.0,0.0,38,0.00,,---,0.00,VWS V14.01,2013-06-16 06:00:00,
2013-06-16 02:05:00,58.1,32.7,29.97,WSW,248,0.0,0.0,38,0.00,,---,0.00,VWS V14.01,2013-06-16 06:05:00,
2013-06-16 02:10:00,58.1,33.3,30.00,WSW,248,0.0,0.0,39,0.00,,---,0.00,VWS V14.01,2013-06-16 06:10:00,
2013-06-16 02:15:00,57.9,33.1,30.00,WSW,248,0.0,0.0,39,0.00,,---,0.00,VWS V14.01,2013-06-16 06:15:00,
2013-06-16 02:20:00,57.9,33.8,30.00,WSW,248,0.0,0.0,40,0.00,,---,0.00,VWS V14.01,2013-06-16 06:20:00,
2013-06-16 02:25:00,58.1,34.5,30.00,NNE,22,0.0,2.5,41,0.00,,---,0.00,VWS V14.01,2013-06-16 06:25:00,
2013-06-16 02:30:00,57.9,35.0,30.00,South,180,0.0,0.0,42,0.00,,---,0.00,VWS V14.01,2013-06-16 06:30:00,
2013-06-16 02:35:00,57.9,36.2,30.00,South,180,1.1,1.3,44,0.00,,---,0.00,VWS V14.01,2013-06-16 06:35:00,
2013-06-16 02:40:00,57.7,36.0,30.00,South,180,0.0,0.0,44,0.00,,---,0.00,VWS V14.01,2013-06-16 06:40:00,
2013-06-16 02:45:00,57.9,37.3,30.00,South,180,0.0,0.0,46,0.00,,---,0.00,VWS V14.01,2013-06-16 06:45:00,
2013-06-16 02:50:00,57.6,36.4,30.00,SSW,202,0.0,0.0,45,0.00,,---,0.00,VWS V14.01,2013-06-16 06:50:00,
2013-06-16 02:55:00,57.6,35.8,29.97,SSW,202,0.0,0.0,44,0.00,,---,0.00,VWS V14.01,2013-06-16 06:55:00,
2013-06-16 03:00:00,57.4,35.1,29.97,SSW,202,0.0,0.0,43,0.00,,---,0.00,VWS V14.01,2013-06-16 07:00:00,
2013-06-16 03:05:00,57.2,34.9,30.00,SSW,202,0.0,0.0,43,0.00,,---,0.00,VWS V14.01,2013-06-16 07:05:00,
2013-06-16 03:10:00,57.2,34.9,30.00,SSW,202,0.0,0.0,43,0.00,,---,0.00,VWS V14.01,2013-06-16 07:10:00,
2013-06-16 03:16:00,57.2,34.9,30.00,SSW,202,0.0,0.0,43,0.00,,---,0.00,VWS V14.01,2013-06-16 07:16:00,
2013-06-16 03:20:00,57.2,34.9,30.00,SSW,202,0.0,0.0,43,0.00,,---,0.00,VWS V14.01,2013-06-16 07:20:00,
2013-06-16 03:21:00,57.2,35.5,29.97,SSW,202,0.0,0.0,44,0.00,,---,0.00,VWS V14.01,2013-06-16 07:21:00,
2013-06-16 03:26:00,57.6,36.4,29.97,SSW,202,0.0,0.0,45,0.00,,---,0.00,VWS V14.01,2013-06-16 07:26:00,
2013-06-16 03:30:00,57.6,36.4,29.97,SSW,202,0.0,0.0,45,0.00,,---,0.00,VWS V14.01,2013-06-16 07:30:00,
2013-06-16 03:31:00,57.6,36.4,29.97,SSW,202,0.0,0.0,45,0.00,,---,0.00,VWS V14.01,2013-06-16 07:31:00,
2013-06-16 03:36:00,57.6,37.0,30.00,SSW,202,0.0,0.0,46,0.00,,---,0.00,VWS V14.01,2013-06-16 07:36:00,
2013-06-16 03:40:00,57.6,36.4,30.00,SSW,202,0.0,0.0,45,0.00,,---,0.00,VWS V14.01,2013-06-16 07:40:00,
2013-06-16 03:41:00,57.6,36.4,30.00,SSW,202,0.0,0.0,45,0.00,,---,0.00,VWS V14.01,2013-06-16 07:41:00,
2013-06-16 03:46:00,57.6,36.4,30.00,SSW,202,0.0,0.0,45,0.00,,---,0.00,VWS V14.01,2013-06-16 07:46:00,
2013-06-16 03:50:00,57.6,36.4,30.00,SSW,202,0.0,0.0,45,0.00,,---,0.00,VWS V14.01,2013-06-16 07:50:00,
2013-06-16 03:51:00,57.7,37.1,30.03,SSW,202,0.0,0.0,46,0.00,,---,0.00,VWS V14.01,2013-06-16 07:51:00,
2013-06-16 03:56:00,57.9,37.3,30.03,SSW,202,0.0,0.0,46,0.00,,---,0.00,VWS V14.01,2013-06-16 07:56:00,
2013-06-16 04:00:00,57.9,37.3,30.03,South,180,1.3,1.3,46,0.00,,---,0.00,VWS V14.01,2013-06-16 08:00:00,
2013-06-16 04:01:00,58.1,39.1,30.03,SSE,158,0.0,2.5,49,0.00,,---,0.00,VWS V14.01,2013-06-16 08:01:00,
2013-06-16 04:06:00,58.1,38.5,30.00,SSE,158,0.0,2.5,48,0.00,,---,0.00,VWS V14.01,2013-06-16 08:06:00,
2013-06-16 04:10:00,58.1,38.5,30.00,SSE,158,0.0,2.5,48,0.00,,---,0.00,VWS V14.01,2013-06-16 08:10:00,
2013-06-16 04:11:00,58.3,38.7,30.00,SSE,158,0.0,0.0,48,0.00,,---,0.00,VWS V14.01,2013-06-16 08:11:00,
2013-06-16 04:16:00,58.3,38.2,30.00,SSE,158,0.0,0.0,47,0.00,,---,0.00,VWS V14.01,2013-06-16 08:16:00,
2013-06-16 04:20:00,58.3,38.2,30.00,SSE,158,0.0,0.0,47,0.00,,---,0.00,VWS V14.01,2013-06-16 08:20:00,
2013-06-16 04:22:00,58.3,38.2,30.00,SSE,158,0.0,0.0,47,0.00,,---,0.00,VWS V14.01,2013-06-16 08:22:00,
2013-06-16 04:27:00,58.3,38.7,30.00,South,180,0.0,0.0,48,0.00,,---,0.00,VWS V14.01,2013-06-16 08:27:00,
2013-06-16 04:30:00,58.3,38.7,30.00,South,180,0.0,0.0,48,0.00,,---,0.00,VWS V14.01,2013-06-16 08:30:00,
2013-06-16 04:32:00,58.3,37.6,30.00,South,180,0.0,0.0,46,0.00,,---,0.00,VWS V14.01,2013-06-16 08:32:00,
2013-06-16 04:37:00,58.5,37.8,30.00,South,180,0.0,0.0,46,0.00,,---,0.00,VWS V14.01,2013-06-16 08:37:00,
2013-06-16 04:40:00,58.5,37.8,30.00,South,180,0.0,0.0,46,0.00,,---,0.00,VWS V14.01,2013-06-16 08:40:00,
2013-06-16 04:42:00,58.5,37.8,30.00,South,180,0.0,0.0,46,0.00,,---,0.00,VWS V14.01,2013-06-16 08:42:00,
2013-06-16 04:47:00,58.5,38.3,30.00,South,180,0.0,0.0,47,0.00,,---,0.00,VWS V14.01,2013-06-16 08:47:00,
2013-06-16 04:50:00,58.5,38.3,30.00,South,180,0.0,1.1,47,0.00,,---,0.00,VWS V14.01,2013-06-16 08:50:00,
2013-06-16 04:52:00,58.5,37.8,30.00,South,180,0.0,0.0,46,0.00,,---,0.00,VWS V14.01,2013-06-16 08:52:00,
2013-06-16 04:57:00,58.5,37.8,30.00,ENE,68,0.0,0.0,46,0.00,,---,0.00,VWS V14.01,2013-06-16 08:57:00,
2013-06-16 05:00:00,58.5,37.8,30.00,ENE,68,0.0,0.0,46,0.00,,---,0.00,VWS V14.01,2013-06-16 09:00:00,
2013-06-16 05:02:00,58.8,38.1,30.00,ENE,68,0.0,0.0,46,0.00,,---,0.00,VWS V14.01,2013-06-16 09:02:00,
2013-06-16 05:07:00,58.8,38.1,29.97,ENE,68,0.0,0.0,46,0.00,,---,0.00,VWS V14.01,2013-06-16 09:07:00,
2013-06-16 05:10:00,58.8,38.1,29.97,ENE,68,0.0,0.0,46,0.00,,---,0.00,VWS V14.01,2013-06-16 09:10:00,
2013-06-16 05:12:00,59.0,37.7,29.97,ENE,68,0.0,0.0,45,0.00,,---,0.00,VWS V14.01,2013-06-16 09:12:00,
2013-06-16 05:17:00,59.0,37.7,29.97,ENE,68,0.0,0.0,45,0.00,,---,0.00,VWS V14.01,2013-06-16 09:17:00,
2013-06-16 05:20:00,58.8,37.5,29.97,ENE,68,0.0,0.0,45,0.00,,---,0.00,VWS V14.01,2013-06-16 09:20:00,
2013-06-16 05:22:00,59.0,37.7,29.97,ENE,68,0.0,0.0,45,0.00,,---,0.00,VWS V14.01,2013-06-16 09:22:00,
2013-06-16 05:27:00,59.0,37.7,29.97,ENE,68,0.0,0.0,45,0.00,,---,0.00,VWS V14.01,2013-06-16 09:27:00,
2013-06-16 05:30:00,59.0,37.7,29.97,ENE,68,0.0,0.0,45,0.00,,---,0.00,VWS V14.01,2013-06-16 09:30:00,
2013-06-16 05:33:00,59.0,37.1,29.97,ENE,68,0.0,0.0,44,0.00,,---,0.00,VWS V14.01,2013-06-16 09:33:00,
2013-06-16 05:38:00,59.0,37.1,29.97,ENE,68,0.0,0.0,44,0.00,,---,0.00,VWS V14.01,2013-06-16 09:38:00,
2013-06-16 05:40:00,58.8,37.5,29.97,ENE,68,0.0,0.0,45,0.00,,---,0.00,VWS V14.01,2013-06-16 09:40:00,
2013-06-16 05:43:00,59.0,37.7,29.97,ENE,68,0.0,0.0,45,0.00,,---,0.00,VWS V14.01,2013-06-16 09:43:00,
2013-06-16 05:48:00,59.0,37.7,29.97,ENE,68,0.0,0.0,45,0.00,,---,0.00,VWS V14.01,2013-06-16 09:48:00,
2013-06-16 05:50:00,59.0,37.7,29.97,ENE,68,0.0,0.0,45,0.00,,---,0.00,VWS V14.01,2013-06-16 09:50:00,
2013-06-16 05:53:00,59.0,37.7,29.97,ENE,68,0.0,0.0,45,0.00,,---,0.00,VWS V14.01,2013-06-16 09:53:00,
2013-06-16 05:58:00,59.2,38.4,29.97,SE,135,0.0,1.3,46,0.00,,---,0.00,VWS V14.01,2013-06-16 09:58:00,
2013-06-16 06:00:00,59.2,37.9,29.97,SE,135,1.3,1.3,45,0.00,,---,0.00,VWS V14.01,2013-06-16 10:00:00,
2013-06-16 06:03:00,59.2,38.4,29.97,ESE,112,0.0,1.3,46,0.00,,---,0.00,VWS V14.01,2013-06-16 10:03:00,
2013-06-16 06:08:00,59.4,38.6,29.97,East,90,0.0,0.0,46,0.00,,---,0.00,VWS V14.01,2013-06-16 10:08:00,
2013-06-16 06:10:00,59.4,38.6,29.97,East,90,0.0,1.3,46,0.00,,---,0.00,VWS V14.01,2013-06-16 10:10:00,
2013-06-16 06:13:00,59.4,38.0,29.97,East,90,0.0,0.0,45,0.00,,---,0.00,VWS V14.01,2013-06-16 10:13:00,
2013-06-16 06:18:00,59.5,38.2,29.97,NE,45,0.0,0.0,45,0.00,,---,0.00,VWS V14.01,2013-06-16 10:18:00,
2013-06-16 06:20:00,59.5,38.2,29.97,NE,45,0.0,0.0,45,0.00,,---,0.00,VWS V14.01,2013-06-16 10:20:00,
2013-06-16 06:23:00,59.5,38.2,29.97,NE,45,0.0,0.0,45,0.00,,---,0.00,VWS V14.01,2013-06-16 10:23:00,
2013-06-16 06:28:00,59.7,37.8,29.97,NE,45,0.0,0.0,44,0.00,,---,0.00,VWS V14.01,2013-06-16 10:28:00,
2013-06-16 06:30:00,59.7,38.4,29.97,NE,45,0.0,0.0,45,0.00,,---,0.00,VWS V14.01,2013-06-16 10:30:00,
2013-06-16 06:33:00,59.7,37.8,29.97,NE,45,0.0,0.0,44,0.00,,---,0.00,VWS V14.01,2013-06-16 10:33:00,
2013-06-16 06:39:00,59.9,38.5,29.97,NE,45,0.0,0.0,45,0.00,,---,0.00,VWS V14.01,2013-06-16 10:39:00,
2013-06-16 06:40:00,59.9,38.5,29.97,NE,45,0.0,0.0,45,0.00,,---,0.00,VWS V14.01,2013-06-16 10:40:00,
2013-06-16 06:44:00,60.1,38.1,29.97,NE,45,0.0,0.0,44,0.00,,---,0.00,VWS V14.01,2013-06-16 10:44:00,
2013-06-16 06:49:00,60.1,38.7,29.97,NE,45,0.0,0.0,45,0.00,,---,0.00,VWS V14.01,2013-06-16 10:49:00,
2013-06-16 06:50:00,60.1,38.1,29.97,NE,45,0.0,0.0,44,0.00,,---,0.00,VWS V14.01,2013-06-16 10:50:00,
2013-06-16 06:54:00,60.3,38.3,29.97,NE,45,0.0,0.0,44,0.00,,---,0.00,VWS V14.01,2013-06-16 10:54:00,
2013-06-16 06:59:00,60.4,38.4,29.97,NE,45,0.0,0.0,44,0.00,,---,0.00,VWS V14.01,2013-06-16 10:59:00,
2013-06-16 07:00:00,60.4,38.4,29.97,NE,45,0.0,0.0,44,0.00,,---,0.00,VWS V14.01,2013-06-16 11:00:00,
2013-06-16 07:04:00,60.6,39.2,29.97,NE,45,0.0,0.0,45,0.00,,---,0.00,VWS V14.01,2013-06-16 11:04:00,
2013-06-16 07:09:00,61.0,38.9,29.94,NE,45,0.0,0.0,44,0.00,,---,0.00,VWS V14.01,2013-06-16 11:09:00,
2013-06-16 07:10:00,60.8,38.8,29.94,NE,45,0.0,0.0,44,0.00,,---,0.00,VWS V14.01,2013-06-16 11:10:00,
2013-06-16 07:14:00,61.2,39.1,29.94,NE,45,0.0,0.0,44,0.00,,---,0.00,VWS V14.01,2013-06-16 11:14:00,
2013-06-16 07:19:00,61.5,39.4,29.94,NE,45,0.0,0.0,44,0.00,,---,0.00,VWS V14.01,2013-06-16 11:19:00,
2013-06-16 07:20:00,61.3,39.3,29.94,NE,45,0.0,0.0,44,0.00,,---,0.00,VWS V14.01,2013-06-16 11:20:00,
2013-06-16 07:24:00,61.7,39.0,29.97,North,0,0.0,0.0,43,0.00,,---,0.00,VWS V14.01,2013-06-16 11:24:00,
2013-06-16 07:29:00,62.1,38.7,29.97,NE,45,0.0,0.0,42,0.00,,---,0.00,VWS V14.01,2013-06-16 11:29:00,
2013-06-16 07:30:00,61.9,38.6,29.97,North,0,0.0,0.0,42,0.00,,---,0.00,VWS V14.01,2013-06-16 11:30:00,
2013-06-16 07:34:00,62.4,38.4,29.97,East,90,0.0,1.6,41,0.00,,---,0.00,VWS V14.01,2013-06-16 11:34:00,
2013-06-16 07:39:00,62.4,37.8,29.97,West,270,0.0,0.0,40,0.00,,---,0.00,VWS V14.01,2013-06-16 11:39:00,
2013-06-16 07:40:00,62.4,37.8,29.97,East,90,0.0,1.6,40,0.00,,---,0.00,VWS V14.01,2013-06-16 11:40:00,
2013-06-16 07:44:00,62.8,37.5,29.97,West,270,0.0,0.0,39,0.00,,---,0.00,VWS V14.01,2013-06-16 11:44:00,
2013-06-16 07:50:00,63.0,37.6,29.97,West,270,0.0,0.0,39,0.00,,---,0.00,VWS V14.01,2013-06-16 11:50:00,
2013-06-16 07:55:00,63.1,37.1,29.94,West,270,0.0,0.0,38,0.00,,---,0.00,VWS V14.01,2013-06-16 11:55:00,
2013-06-16 07:59:00,63.1,36.5,29.94,West,270,0.0,0.0,37,0.00,,---,0.00,VWS V14.01,2013-06-16 11:59:00,
2013-06-16 08:00:00,63.3,37.3,29.94,SSW,202,0.0,1.3,38,0.00,,---,0.00,VWS V14.01,2013-06-16 12:00:00,
2013-06-16 08:05:00,63.5,36.8,29.94,SSW,202,0.0,1.3,37,0.00,,---,0.00,VWS V14.01,2013-06-16 12:05:00,
2013-06-16 08:10:00,63.9,37.1,29.97,SSW,202,0.0,0.0,37,0.00,,---,0.00,VWS V14.01,2013-06-16 12:10:00,
2013-06-16 08:15:00,64.0,37.3,29.97,SSW,202,0.0,0.0,37,0.00,,---,0.00,VWS V14.01,2013-06-16 12:15:00,
2013-06-16 08:20:00,64.2,37.4,29.97,SSW,202,0.0,0.0,37,0.00,,---,0.00,VWS V14.01,2013-06-16 12:20:00,
2013-06-16 08:25:00,64.4,37.6,29.97,ESE,112,0.0,0.0,37,0.00,,---,0.00,VWS V14.01,2013-06-16 12:25:00,
2013-06-16 08:30:00,64.6,37.8,29.97,ESE,112,0.0,0.0,37,0.00,,---,0.00,VWS V14.01,2013-06-16 12:30:00,
2013-06-16 08:35:00,64.8,38.6,29.97,North,0,0.0,0.0,38,0.00,,---,0.00,VWS V14.01,2013-06-16 12:35:00,
2013-06-16 08:40:00,65.1,38.9,29.97,SW,225,0.0,0.0,38,0.00,,---,0.00,VWS V14.01,2013-06-16 12:40:00,
2013-06-16 08:45:00,65.5,38.5,29.97,SW,225,0.0,0.0,37,0.00,,---,0.00,VWS V14.01,2013-06-16 12:45:00,
2013-06-16 08:50:00,65.7,38.7,29.97,SW,225,0.0,0.0,37,0.00,,---,0.00,VWS V14.01,2013-06-16 12:50:00,
2013-06-16 08:51:00,65.8,39.5,29.97,SSW,202,0.0,0.0,38,0.00,,---,0.00,VWS V14.01,2013-06-16 12:51:00,
2013-06-16 08:56:00,66.2,38.5,29.97,SSW,202,0.0,0.0,36,0.00,,---,0.00,VWS V14.01,2013-06-16 12:56:00,
2013-06-16 09:00:00,66.4,38.6,29.97,SSW,202,0.0,0.0,36,0.00,,---,0.00,VWS V14.01,2013-06-16 13:00:00,
2013-06-16 09:01:00,66.6,38.8,29.97,ESE,112,2.7,2.7,36,0.00,,---,0.00,VWS V14.01,2013-06-16 13:01:00,
2013-06-16 09:06:00,66.7,37.5,29.97,SW,225,0.9,2.9,34,0.00,,---,0.00,VWS V14.01,2013-06-16 13:06:00,
2013-06-16 09:10:00,66.7,34.3,29.97,SW,225,0.9,2.9,30,0.00,,---,0.00,VWS V14.01,2013-06-16 13:10:00,
2013-06-16 09:11:00,67.3,35.6,29.97,SW,225,0.0,0.9,31,0.00,,---,0.00,VWS V14.01,2013-06-16 13:11:00,
2013-06-16 09:16:00,67.8,32.7,29.97,SW,225,1.3,2.7,27,0.00,,---,0.00,VWS V14.01,2013-06-16 13:16:00,
2013-06-16 09:20:00,67.8,32.7,29.97,SSW,202,0.0,2.7,27,0.00,,---,0.00,VWS V14.01,2013-06-16 13:20:00,
2013-06-16 09:21:00,68.2,32.0,29.94,NNW,338,0.0,1.3,26,0.00,,---,0.00,VWS V14.01,2013-06-16 13:21:00,
2013-06-16 09:26:00,68.5,32.3,29.94,NW,315,0.0,2.0,26,0.00,,---,0.00,VWS V14.01,2013-06-16 13:26:00,
2013-06-16 09:30:00,68.5,32.3,29.94,NW,315,0.0,2.0,26,0.00,,---,0.00,VWS V14.01,2013-06-16 13:30:00,
2013-06-16 09:31:00,68.9,32.6,29.94,NW,315,0.0,0.0,26,0.00,,---,0.00,VWS V14.01,2013-06-16 13:31:00,
2013-06-16 09:36:00,69.3,32.0,29.94,WNW,292,0.0,0.0,25,0.00,,---,0.00,VWS V14.01,2013-06-16 13:36:00,
2013-06-16 09:40:00,69.3,32.0,29.94,SE,135,0.0,0.0,25,0.00,,---,0.00,VWS V14.01,2013-06-16 13:40:00,
2013-06-16 09:41:00,70.0,30.5,29.94,ESE,112,1.3,1.6,23,0.00,,---,0.00,VWS V14.01,2013-06-16 13:41:00,
2013-06-16 09:47:00,70.5,31.0,29.94,North,0,0.9,1.6,23,0.00,,---,0.00,VWS V14.01,2013-06-16 13:47:00,
2013-06-16 09:50:00,70.7,31.1,29.94,North,0,1.1,1.6,23,0.00,,---,0.00,VWS V14.01,2013-06-16 13:50:00,
2013-06-16 09:52:00,71.1,31.4,29.94,NW,315,0.0,2.0,23,0.00,,---,0.00,VWS V14.01,2013-06-16 13:52:00,
2013-06-16 09:57:00,72.5,31.5,29.94,West,270,0.9,3.4,22,0.00,,---,0.00,VWS V14.01,2013-06-16 13:57:00,
2013-06-16 10:00:00,72.5,31.5,29.94,West,270,0.9,3.4,22,0.00,,---,0.00,VWS V14.01,2013-06-16 14:00:00,
2013-06-16 10:02:00,73.8,31.4,29.94,NW,315,0.0,2.0,21,0.00,,---,0.00,VWS V14.01,2013-06-16 14:02:00,
2013-06-16 10:07:00,75.2,28.8,29.94,SSW,202,1.3,3.6,18,0.00,,---,0.00,VWS V14.01,2013-06-16 14:07:00,
2013-06-16 10:10:00,75.2,28.8,29.94,SSW,202,1.3,3.6,18,0.00,,---,0.00,VWS V14.01,2013-06-16 14:10:00,
2013-06-16 10:12:00,76.3,29.7,29.94,SW,225,1.6,3.8,18,0.00,,---,0.00,VWS V14.01,2013-06-16 14:12:00,
2013-06-16 10:17:00,77.2,26.0,29.94,South,180,1.3,1.3,15,0.00,,---,0.00,VWS V14.01,2013-06-16 14:17:00,
2013-06-16 10:20:00,77.0,25.9,29.94,South,180,1.3,3.8,15,0.00,,---,0.00,VWS V14.01,2013-06-16 14:20:00,
2013-06-16 10:22:00,77.9,26.6,29.94,SSW,202,2.7,2.9,15,0.00,,---,0.00,VWS V14.01,2013-06-16 14:22:00,
2013-06-16 10:27:00,79.3,27.7,29.94,SSE,158,1.3,1.6,15,0.00,,---,0.00,VWS V14.01,2013-06-16 14:27:00,
2013-06-16 10:30:00,79.3,27.7,29.94,SE,135,1.6,2.9,15,0.00,,---,0.00,VWS V14.01,2013-06-16 14:30:00,
2013-06-16 10:32:00,79.9,28.1,29.94,SW,225,2.9,5.4,15,0.00,,---,0.00,VWS V14.01,2013-06-16 14:32:00,
2013-06-16 10:37:00,80.4,28.6,29.94,SW,225,1.6,3.4,15,0.00,,---,0.00,VWS V14.01,2013-06-16 14:37:00,
2013-06-16 10:40:00,80.4,28.6,29.94,WSW,248,2.0,6.0,15,0.00,,---,0.00,VWS V14.01,2013-06-16 14:40:00,
2013-06-16 10:42:00,81.5,27.8,29.94,South,180,1.6,4.3,14,0.00,,---,0.00,VWS V14.01,2013-06-16 14:42:00,
2013-06-16 10:47:00,81.7,27.9,29.94,SE,135,1.3,3.4,14,0.00,,---,0.00,VWS V14.01,2013-06-16 14:47:00,
2013-06-16 10:50:00,81.7,27.9,29.94,ESE,112,3.4,6.5,14,0.00,,---,0.00,VWS V14.01,2013-06-16 14:50:00,
2013-06-16 10:52:00,81.7,27.9,29.91,SW,225,6.5,8.1,14,0.00,,---,0.00,VWS V14.01,2013-06-16 14:52:00,
2013-06-16 10:57:00,80.8,27.2,29.91,West,270,5.8,5.8,14,0.00,,---,0.00,VWS V14.01,2013-06-16 14:57:00,
2013-06-16 11:00:00,81.3,27.6,29.91,SW,225,3.8,8.1,14,0.00,,---,0.00,VWS V14.01,2013-06-16 15:00:00,
2013-06-16 11:03:00,80.4,28.6,29.91,West,270,2.5,9.8,15,0.00,,---,0.00,VWS V14.01,2013-06-16 15:03:00,
2013-06-16 11:08:00,80.8,27.2,29.91,West,270,1.3,3.4,14,0.00,,---,0.00,VWS V14.01,2013-06-16 15:08:00,
2013-06-16 11:10:00,80.8,27.2,29.91,WNW,292,3.4,9.8,14,0.00,,---,0.00,VWS V14.01,2013-06-16 15:10:00,
2013-06-16 11:13:00,81.1,27.5,29.91,WSW,248,5.6,5.6,14,0.00,,---,0.00,VWS V14.01,2013-06-16 15:13:00,
2013-06-16 11:18:00,82.0,28.2,29.91,SW,225,2.5,4.0,14,0.00,,---,0.00,VWS V14.01,2013-06-16 15:18:00,
2013-06-16 11:20:00,81.7,27.9,29.91,SE,135,4.0,5.8,14,0.00,,---,0.00,VWS V14.01,2013-06-16 15:20:00,
2013-06-16 11:23:00,82.4,28.5,29.91,SSW,202,1.6,5.4,14,0.00,,---,0.00,VWS V14.01,2013-06-16 15:23:00,
2013-06-16 11:28:00,82.6,28.6,29.91,SSW,202,2.0,4.0,14,0.00,,---,0.00,VWS V14.01,2013-06-16 15:28:00,
2013-06-16 11:30:00,82.8,28.8,29.91,West,270,2.5,7.8,14,0.00,,---,0.00,VWS V14.01,2013-06-16 15:30:00,
2013-06-16 11:33:00,83.1,29.0,29.91,WSW,248,2.9,4.0,14,0.00,,---,0.00,VWS V14.01,2013-06-16 15:33:00,
2013-06-16 11:38:00,84.2,28.1,29.91,East,90,1.3,3.1,13,0.00,,---,0.00,VWS V14.01,2013-06-16 15:38:00,
2013-06-16 11:40:00,83.8,29.6,29.91,WSW,248,3.1,5.4,14,0.00,,---,0.00,VWS V14.01,2013-06-16 15:40:00,
2013-06-16 11:43:00,83.7,29.5,29.91,SE,135,3.8,9.6,14,0.00,,---,0.00,VWS V14.01,2013-06-16 15:43:00,
2013-06-16 11:48:00,82.6,28.6,29.91,South,180,1.6,3.8,14,0.00,,---,0.00,VWS V14.01,2013-06-16 15:48:00,
2013-06-16 11:50:00,82.8,28.8,29.91,NW,315,2.7,9.6,14,0.00,,---,0.00,VWS V14.01,2013-06-16 15:50:00,
2013-06-16 11:53:00,82.0,28.2,29.91,SW,225,3.6,6.0,14,0.00,,---,0.00,VWS V14.01,2013-06-16 15:53:00,
2013-06-16 11:58:00,81.9,28.0,29.91,SSW,202,3.6,5.8,14,0.00,,---,0.00,VWS V14.01,2013-06-16 15:58:00,
2013-06-16 12:00:00,81.9,28.0,29.91,WSW,248,3.1,8.7,14,0.00,,---,0.00,VWS V14.01,2013-06-16 16:00:00,
2013-06-16 12:03:00,82.0,28.2,29.91,SW,225,1.1,11.0,14,0.00,,---,0.00,VWS V14.01,2013-06-16 16:03:00,
2013-06-16 12:09:00,82.2,28.3,29.91,SW,225,0.9,3.1,14,0.00,,---,0.00,VWS V14.01,2013-06-16 16:09:00,
2013-06-16 12:10:00,82.0,28.2,29.91,NW,315,2.2,11.0,14,0.00,,---,0.00,VWS V14.01,2013-06-16 16:10:00,
2013-06-16 12:14:00,81.7,27.9,29.91,SW,225,3.6,4.0,14,0.00,,---,0.00,VWS V14.01,2013-06-16 16:14:00,
2013-06-16 12:19:00,81.0,27.3,29.91,South,180,3.4,5.8,14,0.00,,---,0.00,VWS V14.01,2013-06-16 16:19:00,
2013-06-16 12:20:00,81.1,27.5,29.91,SE,135,3.1,4.9,14,0.00,,---,0.00,VWS V14.01,2013-06-16 16:20:00,
2013-06-16 12:24:00,80.6,27.0,29.88,NNW,338,1.6,7.4,14,0.00,,---,0.00,VWS V14.01,2013-06-16 16:24:00,
2013-06-16 12:29:00,81.5,27.8,29.88,West,270,0.9,4.7,14,0.00,,---,0.00,VWS V14.01,2013-06-16 16:29:00,
2013-06-16 12:30:00,81.3,27.6,29.88,NE,45,1.6,7.4,14,0.00,,---,0.00,VWS V14.01,2013-06-16 16:30:00,
2013-06-16 12:34:00,81.1,27.5,29.88,NNE,22,2.5,5.4,14,0.00,,---,0.00,VWS V14.01,2013-06-16 16:34:00,
2013-06-16 12:39:00,81.9,28.0,29.85,WSW,248,2.0,9.0,14,0.00,,---,0.00,VWS V14.01,2013-06-16 16:39:00,
2013-06-16 12:40:00,81.3,27.6,29.85,SW,225,9.0,9.0,14,0.00,,---,0.00,VWS V14.01,2013-06-16 16:40:00,
2013-06-16 12:44:00,82.2,28.3,29.85,SSE,158,4.0,9.0,14,0.00,,---,0.00,VWS V14.01,2013-06-16 16:44:00,
2013-06-16 12:49:00,82.0,28.2,29.85,SSW,202,4.9,5.6,14,0.00,,---,0.00,VWS V14.01,2013-06-16 16:49:00,
2013-06-16 12:50:00,82.0,28.2,29.85,SW,225,3.1,10.3,14,0.00,,---,0.00,VWS V14.01,2013-06-16 16:50:00,
2013-06-16 12:54:00,82.4,28.5,29.82,SW,225,2.9,6.0,14,0.00,,---,0.00,VWS V14.01,2013-06-16 16:54:00,
2013-06-16 12:59:00,82.8,28.8,29.82,North,0,1.3,4.0,14,0.00,,---,0.00,VWS V14.01,2013-06-16 16:59:00,
2013-06-16 13:00:00,82.8,28.8,29.82,NW,315,4.0,6.0,14,0.00,,---,0.00,VWS V14.01,2013-06-16 17:00:00,
2013-06-16 13:04:00,81.9,28.0,29.82,WSW,248,3.6,8.7,14,0.00,,---,0.00,VWS V14.01,2013-06-16 17:04:00,
2013-06-16 13:10:00,81.0,27.3,29.82,West,270,4.3,4.9,14,0.00,,---,0.00,VWS V14.01,2013-06-16 17:10:00,
2013-06-16 13:15:00,81.5,27.8,29.82,SW,225,1.3,5.8,14,0.00,,---,0.00,VWS V14.01,2013-06-16 17:15:00,
2013-06-16 13:20:00,81.7,27.9,29.82,SW,225,4.0,4.5,14,0.00,,---,0.00,VWS V14.01,2013-06-16 17:20:00,
2013-06-16 13:25:00,81.7,27.9,29.85,SW,225,3.1,5.4,14,0.00,,---,0.00,VWS V14.01,2013-06-16 17:25:00,
2013-06-16 13:30:00,82.8,28.8,29.85,West,270,2.5,3.8,14,0.00,,---,0.00,VWS V14.01,2013-06-16 17:30:00,
2013-06-16 13:35:00,82.0,28.2,29.85,SSE,158,9.6,9.6,14,0.00,,---,0.00,VWS V14.01,2013-06-16 17:35:00,
2013-06-16 13:40:00,81.9,28.0,29.85,West,270,2.5,4.3,14,0.00,,---,0.00,VWS V14.01,2013-06-16 17:40:00,
2013-06-16 13:45:00,81.0,27.3,29.85,SW,225,4.3,5.4,14,0.00,,---,0.00,VWS V14.01,2013-06-16 17:45:00,
2013-06-16 13:50:00,80.2,28.4,29.88,West,270,5.4,12.5,15,0.00,,---,0.00,VWS V14.01,2013-06-16 17:50:00,
2013-06-16 13:55:00,80.4,28.6,29.88,WSW,248,4.3,12.5,15,0.00,,---,0.00,VWS V14.01,2013-06-16 17:55:00,
2013-06-16 14:00:00,80.2,28.4,29.88,SSW,202,5.8,7.6,15,0.00,,---,0.00,VWS V14.01,2013-06-16 18:00:00,
2013-06-16 14:06:00,80.6,27.0,29.85,SW,225,3.4,8.1,14,0.00,,---,0.00,VWS V14.01,2013-06-16 18:06:00,
2013-06-16 14:10:00,80.8,27.2,29.85,SE,135,1.3,8.1,14,0.00,,---,0.00,VWS V14.01,2013-06-16 18:10:00,
2013-06-16 14:11:00,81.7,27.9,29.85,SW,225,1.6,4.7,14,0.00,,---,0.00,VWS V14.01,2013-06-16 18:11:00,
2013-06-16 14:16:00,82.4,28.5,29.85,West,270,3.4,6.7,14,0.00,,---,0.00,VWS V14.01,2013-06-16 18:16:00,
2013-06-16 14:20:00,82.4,28.5,29.85,SW,225,2.0,6.7,14,0.00,,---,0.00,VWS V14.01,2013-06-16 18:20:00,
2013-06-16 14:21:00,82.0,28.2,29.85,SW,225,8.7,8.7,14,0.00,,---,0.00,VWS V14.01,2013-06-16 18:21:00,
2013-06-16 14:26:00,81.0,27.3,29.85,West,270,4.0,10.7,14,0.00,,---,0.00,VWS V14.01,2013-06-16 18:26:00,
2013-06-16 14:30:00,81.0,27.3,29.85,SW,225,3.1,10.7,14,0.00,,---,0.00,VWS V14.01,2013-06-16 18:30:00,
2013-06-16 14:31:00,81.1,27.5,29.85,SSW,202,2.0,7.8,14,0.00,,---,0.00,VWS V14.01,2013-06-16 18:31:00,
2013-06-16 14:36:00,81.5,27.8,29.85,WNW,292,2.7,7.8,14,0.00,,---,0.00,VWS V14.01,2013-06-16 18:36:00,
2013-06-16 14:40:00,81.5,27.8,29.85,NW,315,4.3,7.8,14,0.00,,---,0.00,VWS V14.01,2013-06-16 18:40:00,
2013-06-16 14:41:00,81.3,27.6,29.85,SW,225,4.7,8.7,14,0.00,,---,0.00,VWS V14.01,2013-06-16 18:41:00,
2013-06-16 14:46:00,81.5,27.8,29.85,South,180,3.6,8.7,14,0.00,,---,0.00,VWS V14.01,2013-06-16 18:46:00,
2013-06-16 14:50:00,81.5,27.8,29.85,WNW,292,3.8,12.5,14,0.00,,---,0.00,VWS V14.01,2013-06-16 18:50:00,
2013-06-16 14:51:00,81.7,27.9,29.85,SSW,202,2.9,5.8,14,0.00,,---,0.00,VWS V14.01,2013-06-16 18:51:00,
2013-06-16 14:56:00,81.7,27.9,29.85,WSW,248,1.6,6.0,14,0.00,,---,0.00,VWS V14.01,2013-06-16 18:56:00,
2013-06-16 15:00:00,81.7,27.9,29.85,SW,225,2.0,6.0,14,0.00,,---,0.00,VWS V14.01,2013-06-16 19:00:00,
2013-06-16 15:01:00,81.5,27.8,29.85,WNW,292,5.4,5.4,14,0.00,,---,0.00,VWS V14.01,2013-06-16 19:01:00,
2013-06-16 15:07:00,82.4,28.5,29.85,SE,135,2.5,6.0,14,0.00,,---,0.00,VWS V14.01,2013-06-16 19:07:00,
2013-06-16 15:10:00,82.4,28.5,29.85,NW,315,3.6,6.0,14,0.00,,---,0.00,VWS V14.01,2013-06-16 19:10:00,
2013-06-16 15:12:00,82.6,28.6,29.85,South,180,3.8,12.1,14,0.00,,---,0.00,VWS V14.01,2013-06-16 19:12:00,
2013-06-16 15:17:00,82.4,28.5,29.85,West,270,2.9,12.1,14,0.00,,---,0.00,VWS V14.01,2013-06-16 19:17:00,
2013-06-16 15:20:00,82.4,28.5,29.85,West,270,2.9,12.1,14,0.00,,---,0.00,VWS V14.01,2013-06-16 19:20:00,
2013-06-16 15:22:00,82.0,28.2,29.82,West,270,2.9,7.6,14,0.00,,---,0.00,VWS V14.01,2013-06-16 19:22:00,
2013-06-16 15:27:00,82.9,28.9,29.82,East,90,3.4,3.4,14,0.00,,---,0.00,VWS V14.01,2013-06-16 19:27:00,
2013-06-16 15:30:00,82.6,28.6,29.82,East,90,3.4,8.7,14,0.00,,---,0.00,VWS V14.01,2013-06-16 19:30:00,
2013-06-16 15:32:00,83.7,29.5,29.82,WSW,248,3.4,6.3,14,0.00,,---,0.00,VWS V14.01,2013-06-16 19:32:00,
2013-06-16 15:37:00,82.9,28.9,29.82,SW,225,3.8,3.8,14,0.00,,---,0.00,VWS V14.01,2013-06-16 19:37:00,
2013-06-16 15:40:00,82.9,28.9,29.82,East,90,3.1,11.9,14,0.00,,---,0.00,VWS V14.01,2013-06-16 19:40:00,
2013-06-16 15:42:00,82.0,28.2,29.82,West,270,9.0,10.3,14,0.00,,---,0.00,VWS V14.01,2013-06-16 19:42:00,
2013-06-16 15:47:00,82.0,28.2,29.82,East,90,5.8,5.8,14,0.00,,---,0.00,VWS V14.01,2013-06-16 19:47:00,
2013-06-16 15:50:00,82.0,28.2,29.82,South,180,3.6,10.3,14,0.00,,---,0.00,VWS V14.01,2013-06-16 19:50:00,
2013-06-16 15:52:00,81.9,28.0,29.85,SW,225,5.6,9.6,14,0.00,,---,0.00,VWS V14.01,2013-06-16 19:52:00,
2013-06-16 15:57:00,82.9,28.9,29.85,WNW,292,4.3,7.4,14,0.00,,---,0.00,VWS V14.01,2013-06-16 19:57:00,
2013-06-16 16:00:00,82.9,28.9,29.85,NW,315,5.4,10.5,14,0.00,,---,0.00,VWS V14.01,2013-06-16 20:00:00,
2013-06-16 16:02:00,83.3,29.2,29.85,West,270,4.9,7.4,14,0.00,,---,0.00,VWS V14.01,2013-06-16 20:02:00,
2013-06-16 16:07:00,82.4,28.5,29.82,NW,315,6.5,6.5,14,0.00,,---,0.00,VWS V14.01,2013-06-16 20:07:00,
2013-06-16 16:10:00,82.4,28.5,29.82,SW,225,6.5,7.8,14,0.00,,---,0.00,VWS V14.01,2013-06-16 20:10:00,
2013-06-16 16:12:00,81.3,27.6,29.82,SW,225,5.6,10.5,14,0.00,,---,0.00,VWS V14.01,2013-06-16 20:12:00,
2013-06-16 16:18:00,81.7,27.9,29.82,SW,225,5.4,6.3,14,0.00,,---,0.00,VWS V14.01,2013-06-16 20:18:00,
2013-06-16 16:20:00,81.9,28.0,29.82,West,270,3.6,10.5,14,0.00,,---,0.00,VWS V14.01,2013-06-16 20:20:00,
2013-06-16 16:23:00,81.9,28.0,29.82,WNW,292,2.7,7.8,14,0.00,,---,0.00,VWS V14.01,2013-06-16 20:23:00,
2013-06-16 16:28:00,81.0,27.3,29.82,WNW,292,7.2,7.2,14,0.00,,---,0.00,VWS V14.01,2013-06-16 20:28:00,
2013-06-16 16:30:00,81.0,27.3,29.82,WSW,248,3.8,9.8,14,0.00,,---,0.00,VWS V14.01,2013-06-16 20:30:00,
2013-06-16 16:33:00,81.0,27.3,29.82,SW,225,8.1,8.1,14,0.00,,---,0.00,VWS V14.01,2013-06-16 20:33:00,
2013-06-16 16:38:00,80.4,28.6,29.85,WSW,248,6.0,8.1,15,0.00,,---,0.00,VWS V14.01,2013-06-16 20:38:00,
2013-06-16 16:40:00,80.6,27.0,29.85,WSW,248,7.8,8.1,14,0.00,,---,0.00,VWS V14.01,2013-06-16 20:40:00,
2013-06-16 16:43:00,80.1,28.3,29.85,West,270,4.3,17.0,15,0.00,,---,0.00,VWS V14.01,2013-06-16 20:43:00,
2013-06-16 16:48:00,79.9,28.1,29.85,West,270,6.7,12.5,15,0.00,,---,0.00,VWS V14.01,2013-06-16 20:48:00,
2013-06-16 16:50:00,79.9,28.1,29.85,NNE,22,12.5,17.0,15,0.00,,---,0.00,VWS V14.01,2013-06-16 20:50:00,
2013-06-16 16:53:00,80.1,28.3,29.85,NW,315,7.4,12.5,15,0.00,,---,0.00,VWS V14.01,2013-06-16 20:53:00,
2013-06-16 16:58:00,79.9,28.1,29.85,SW,225,4.0,10.3,15,0.00,,---,0.00,VWS V14.01,2013-06-16 20:58:00,
2013-06-16 17:00:00,79.9,28.1,29.85,SW,225,10.3,12.5,15,0.00,,---,0.00,VWS V14.01,2013-06-16 21:00:00,
2013-06-16 17:03:00,79.5,27.9,29.85,NW,315,3.8,10.3,15,0.00,,---,0.00,VWS V14.01,2013-06-16 21:03:00,
2013-06-16 17:08:00,79.3,27.7,29.85,WNW,292,6.0,8.7,15,0.00,,---,0.00,VWS V14.01,2013-06-16 21:08:00,
2013-06-16 17:10:00,79.7,28.0,29.85,SW,225,2.5,10.3,15,0.00,,---,0.00,VWS V14.01,2013-06-16 21:10:00,
2013-06-16 17:13:00,79.2,27.6,29.85,West,270,4.0,8.7,15,0.00,,---,0.00,VWS V14.01,2013-06-16 21:13:00,
2013-06-16 17:18:00,78.8,27.3,29.85,WNW,292,3.4,7.8,15,0.00,,---,0.00,VWS V14.01,2013-06-16 21:18:00,
2013-06-16 17:20:00,79.0,27.4,29.85,West,270,3.4,8.7,15,0.00,,---,0.00,VWS V14.01,2013-06-16 21:20:00,
2013-06-16 17:24:00,78.6,27.1,29.85,West,270,3.6,10.5,15,0.00,,---,0.00,VWS V14.01,2013-06-16 21:24:00,
2013-06-16 17:29:00,78.4,27.0,29.85,WNW,292,12.8,12.8,15,0.00,,---,0.00,VWS V14.01,2013-06-16 21:29:00,
2013-06-16 17:30:00,78.4,27.0,29.85,WSW,248,8.1,11.4,15,0.00,,---,0.00,VWS V14.01,2013-06-16 21:30:00,
2013-06-16 17:34:00,78.4,27.0,29.85,NW,315,3.6,12.8,15,0.00,,---,0.00,VWS V14.01,2013-06-16 21:34:00,
2013-06-16 17:39:00,78.4,27.0,29.88,West,270,3.8,4.0,15,0.00,,---,0.00,VWS V14.01,2013-06-16 21:39:00,
2013-06-16 17:40:00,78.3,26.9,29.88,NW,315,2.9,12.8,15,0.00,,---,0.00,VWS V14.01,2013-06-16 21:40:00,
2013-06-16 17:44:00,77.7,30.9,29.88,NNE,22,4.7,7.4,18,0.00,,---,0.00,VWS V14.01,2013-06-16 21:44:00,
2013-06-16 17:49:00,77.2,30.4,29.88,West,270,7.8,9.2,18,0.00,,---,0.00,VWS V14.01,2013-06-16 21:49:00,
2013-06-16 17:50:00,77.7,30.9,29.88,WSW,248,4.9,7.6,18,0.00,,---,0.00,VWS V14.01,2013-06-16 21:50:00,
2013-06-16 17:54:00,76.8,30.1,29.85,North,0,10.7,10.7,18,0.00,,---,0.00,VWS V14.01,2013-06-16 21:54:00,
2013-06-16 17:59:00,76.6,30.0,29.85,North,0,5.4,5.6,18,0.00,,---,0.00,VWS V14.01,2013-06-16 21:59:00,
2013-06-16 18:00:00,76.8,30.1,29.85,NNW,338,4.3,10.7,18,0.00,,---,0.00,VWS V14.01,2013-06-16 22:00:00,
2013-06-16 18:04:00,76.6,30.0,29.85,WSW,248,4.7,13.2,18,0.00,,---,0.00,VWS V14.01,2013-06-16 22:04:00,
2013-06-16 18:09:00,76.3,29.7,29.85,NW,315,5.4,9.6,18,0.00,,---,0.00,VWS V14.01,2013-06-16 22:09:00,
2013-06-16 18:10:00,76.5,29.9,29.85,West,270,5.8,13.2,18,0.00,,---,0.00,VWS V14.01,2013-06-16 22:10:00,
2013-06-16 18:14:00,76.1,29.6,29.85,West,270,4.7,10.1,18,0.00,,---,0.00,VWS V14.01,2013-06-16 22:14:00,
2013-06-16 18:19:00,75.9,32.0,29.85,SW,225,3.1,8.1,20,0.00,,---,0.00,VWS V14.01,2013-06-16 22:19:00,
2013-06-16 18:20:00,76.1,32.2,29.85,WSW,248,5.6,10.1,20,0.00,,---,0.00,VWS V14.01,2013-06-16 22:20:00,
2013-06-16 18:25:00,75.9,32.0,29.85,SE,135,5.6,8.1,20,0.00,,---,0.00,VWS V14.01,2013-06-16 22:25:00,
2013-06-16 18:30:00,75.7,33.1,29.85,West,270,4.9,11.0,21,0.00,,---,0.00,VWS V14.01,2013-06-16 22:30:00,
2013-06-16 18:35:00,75.4,32.8,29.85,WSW,248,6.0,11.0,21,0.00,,---,0.00,VWS V14.01,2013-06-16 22:35:00,
2013-06-16 18:40:00,75.4,32.8,29.85,SSW,202,2.9,5.6,21,0.00,,---,0.00,VWS V14.01,2013-06-16 22:40:00,
2013-06-16 18:45:00,75.2,32.6,29.85,West,270,4.0,10.1,21,0.00,,---,0.00,VWS V14.01,2013-06-16 22:45:00,
2013-06-16 18:50:00,75.0,33.6,29.85,West,270,2.9,8.1,22,0.00,,---,0.00,VWS V14.01,2013-06-16 22:50:00,
2013-06-16 18:55:00,74.8,33.5,29.85,West,270,4.9,8.1,22,0.00,,---,0.00,VWS V14.01,2013-06-16 22:55:00,
2013-06-16 19:00:00,74.7,33.3,29.85,South,180,5.8,5.8,22,0.00,,---,0.00,VWS V14.01,2013-06-16 23:00:00,
2013-06-16 19:05:00,74.5,34.3,29.85,SSW,202,3.1,9.8,23,0.00,,---,0.00,VWS V14.01,2013-06-16 23:05:00,
2013-06-16 19:10:00,74.5,34.3,29.85,WNW,292,2.9,7.8,23,0.00,,---,0.00,VWS V14.01,2013-06-16 23:10:00,
2013-06-16 19:15:00,74.3,34.1,29.85,WNW,292,4.9,7.8,23,0.00,,---,0.00,VWS V14.01,2013-06-16 23:15:00,
2013-06-16 19:20:00,73.9,33.8,29.88,West,270,2.9,7.6,23,0.00,,---,0.00,VWS V14.01,2013-06-16 23:20:00,
2013-06-16 19:25:00,73.8,33.7,29.88,SW,225,2.5,7.6,23,0.00,,---,0.00,VWS V14.01,2013-06-16 23:25:00,
2013-06-16 19:30:00,73.8,34.8,29.88,West,270,4.3,7.6,24,0.00,,---,0.00,VWS V14.01,2013-06-16 23:30:00,
2013-06-16 19:31:00,73.8,34.8,29.88,West,270,3.4,9.6,24,0.00,,---,0.00,VWS V14.01,2013-06-16 23:31:00,
2013-06-16 19:36:00,73.6,34.6,29.85,South,180,6.3,9.6,24,0.00,,---,0.00,VWS V14.01,2013-06-16 23:36:00,
2013-06-16 19:40:00,73.6,35.6,29.85,NW,315,1.6,9.6,25,0.00,,---,0.00,VWS V14.01,2013-06-16 23:40:00,
2013-06-16 19:41:00,73.8,34.8,29.85,WSW,248,1.3,2.9,24,0.00,,---,0.00,VWS V14.01,2013-06-16 23:41:00,
2013-06-16 19:46:00,73.6,35.6,29.85,NW,315,2.2,4.9,25,0.00,,---,0.00,VWS V14.01,2013-06-16 23:46:00,
2013-06-16 19:50:00,73.6,35.6,29.85,South,180,1.1,4.9,25,0.00,,---,0.00,VWS V14.01,2013-06-16 23:50:00,
2013-06-16 19:51:00,73.6,35.6,29.85,West,270,1.1,4.9,25,0.00,,---,0.00,VWS V14.01,2013-06-16 23:51:00,
2013-06-16 19:56:00,73.6,36.6,29.85,WSW,248,1.3,5.4,26,0.00,,---,0.00,VWS V14.01,2013-06-16 23:56:00,
2013-06-16 20:00:00,73.6,36.6,29.85,WNW,292,2.0,5.4,26,0.00,,---,0.00,VWS V14.01,2013-06-17 00:00:00,
2013-06-16 20:01:00,73.4,36.5,29.85,West,270,3.1,3.8,26,0.00,,---,0.00,VWS V14.01,2013-06-17 00:01:00,
2013-06-16 20:06:00,73.2,37.3,29.82,West,270,1.3,4.7,27,0.00,,---,0.00,VWS V14.01,2013-06-17 00:06:00,
2013-06-16 20:10:00,73.2,37.3,29.82,WSW,248,2.7,4.7,27,0.00,,---,0.00,VWS V14.01,2013-06-17 00:10:00,
2013-06-16 20:11:00,73.0,38.0,29.82,South,180,3.1,5.6,28,0.00,,---,0.00,VWS V14.01,2013-06-17 00:11:00,
2013-06-16 20:16:00,72.7,38.6,29.82,NW,315,2.5,6.5,29,0.00,,---,0.00,VWS V14.01,2013-06-17 00:16:00,
2013-06-16 20:20:00,72.7,38.6,29.82,SW,225,2.9,6.5,29,0.00,,---,0.00,VWS V14.01,2013-06-17 00:20:00,
2013-06-16 20:21:00,72.5,39.3,29.82,West,270,5.4,6.5,30,0.00,,---,0.00,VWS V14.01,2013-06-17 00:21:00,
2013-06-16 20:26:00,72.5,40.2,29.82,NNW,338,5.4,6.5,31,0.00,,---,0.00,VWS V14.01,2013-06-17 00:26:00,
2013-06-16 20:30:00,72.5,40.2,29.82,NW,315,3.4,6.5,31,0.00,,---,0.00,VWS V14.01,2013-06-17 00:30:00,
2013-06-16 20:31:00,72.3,40.0,29.82,WSW,248,1.3,7.6,31,0.00,,---,0.00,VWS V14.01,2013-06-17 00:31:00,
2013-06-16 20:37:00,72.1,39.9,29.85,WNW,292,4.0,7.6,31,0.00,,---,0.00,VWS V14.01,2013-06-17 00:37:00,
2013-06-16 20:40:00,72.1,39.9,29.85,WNW,292,4.0,7.6,31,0.00,,---,0.00,VWS V14.01,2013-06-17 00:40:00,
2013-06-16 20:42:00,72.0,39.7,29.85,NW,315,1.3,5.6,31,0.00,,---,0.00,VWS V14.01,2013-06-17 00:42:00,
2013-06-16 20:47:00,71.8,40.4,29.85,SW,225,2.9,5.6,32,0.00,,---,0.00,VWS V14.01,2013-06-17 00:47:00,
2013-06-16 20:50:00,71.8,40.4,29.85,SW,225,2.9,5.6,32,0.00,,---,0.00,VWS V14.01,2013-06-17 00:50:00,
2013-06-16 20:52:00,71.8,40.4,29.85,SSW,202,2.5,4.3,32,0.00,,---,0.00,VWS V14.01,2013-06-17 00:52:00,
2013-06-16 20:57:00,71.6,40.2,29.85,ESE,112,1.1,1.1,32,0.00,,---,0.00,VWS V14.01,2013-06-17 00:57:00,
2013-06-16 21:00:00,71.6,40.2,29.85,NW,315,1.1,4.3,32,0.00,,---,0.00,VWS V14.01,2013-06-17 01:00:00,
2013-06-16 21:02:00,71.4,40.8,29.85,SW,225,0.0,2.9,33,0.00,,---,0.00,VWS V14.01,2013-06-17 01:02:00,
2013-06-16 21:07:00,71.2,40.7,29.82,NNW,338,3.6,3.6,33,0.00,,---,0.00,VWS V14.01,2013-06-17 01:07:00,
2013-06-16 21:10:00,71.2,40.7,29.82,NNW,338,1.1,3.8,33,0.00,,---,0.00,VWS V14.01,2013-06-17 01:10:00,
2013-06-16 21:12:00,71.2,41.5,29.82,WSW,248,1.6,4.9,34,0.00,,---,0.00,VWS V14.01,2013-06-17 01:12:00,
2013-06-16 21:17:00,71.1,41.3,29.82,SW,225,2.5,2.9,34,0.00,,---,0.00,VWS V14.01,2013-06-17 01:17:00,
2013-06-16 21:20:00,71.1,41.3,29.82,WNW,292,2.0,4.9,34,0.00,,---,0.00,VWS V14.01,2013-06-17 01:20:00,
2013-06-16 21:22:00,71.1,42.0,29.82,West,270,2.7,4.7,35,0.00,,---,0.00,VWS V14.01,2013-06-17 01:22:00,
2013-06-16 21:27:00,70.9,41.9,29.82,WNW,292,0.0,2.7,35,0.00,,---,0.00,VWS V14.01,2013-06-17 01:27:00,
2013-06-16 21:30:00,70.9,41.9,29.82,West,270,2.7,4.7,35,0.00,,---,0.00,VWS V14.01,2013-06-17 01:30:00,
2013-06-16 21:32:00,70.7,41.7,29.82,WSW,248,2.5,4.7,35,0.00,,---,0.00,VWS V14.01,2013-06-17 01:32:00,
2013-06-16 21:37:00,70.7,42.5,29.85,West,270,1.6,1.6,36,0.00,,---,0.00,VWS V14.01,2013-06-17 01:37:00,
2013-06-16 21:40:00,70.7,42.5,29.85,SW,225,1.1,5.6,36,0.00,,---,0.00,VWS V14.01,2013-06-17 01:40:00,
2013-06-16 21:43:00,70.5,42.3,29.85,ENE,68,2.0,3.8,36,0.00,,---,0.00,VWS V14.01,2013-06-17 01:43:00,
2013-06-16 21:48:00,70.3,42.9,29.85,SW,225,1.6,3.1,37,0.00,,---,0.00,VWS V14.01,2013-06-17 01:48:00,
2013-06-16 21:50:00,70.5,43.0,29.85,NW,315,1.3,4.9,37,0.00,,---,0.00,VWS V14.01,2013-06-17 01:50:00,
2013-06-16 21:53:00,70.2,43.4,29.85,WSW,248,3.4,3.4,38,0.00,,---,0.00,VWS V14.01,2013-06-17 01:53:00,
2013-06-16 21:58:00,70.2,44.1,29.85,West,270,2.7,3.1,39,0.00,,---,0.00,VWS V14.01,2013-06-17 01:58:00,
2013-06-16 22:00:00,70.2,44.1,29.85,SW,225,2.7,3.4,39,0.00,,---,0.00,VWS V14.01,2013-06-17 02:00:00,
2013-06-16 22:03:00,70.2,44.1,29.85,WNW,292,1.3,3.8,39,0.00,,---,0.00,VWS V14.01,2013-06-17 02:03:00,
2013-06-16 22:08:00,70.0,44.6,29.85,West,270,1.3,3.1,40,0.00,,---,0.00,VWS V14.01,2013-06-17 02:08:00,
2013-06-16 22:10:00,70.0,44.6,29.85,West,270,2.2,3.8,40,0.00,,---,0.00,VWS V14.01,2013-06-17 02:10:00,
2013-06-16 22:13:00,70.0,45.2,29.85,West,270,1.3,4.9,41,0.00,,---,0.00,VWS V14.01,2013-06-17 02:13:00,
2013-06-16 22:18:00,69.8,43.8,29.85,NW,315,0.0,1.6,39,0.00,,---,0.00,VWS V14.01,2013-06-17 02:18:00,
2013-06-16 22:20:00,69.8,44.4,29.85,WNW,292,0.9,4.9,40,0.00,,---,0.00,VWS V14.01,2013-06-17 02:20:00,
2013-06-16 22:23:00,69.8,44.4,29.88,WNW,292,0.9,2.9,40,0.00,,---,0.00,VWS V14.01,2013-06-17 02:23:00,
2013-06-16 22:28:00,69.6,45.5,29.88,West,270,2.0,3.1,42,0.00,,---,0.00,VWS V14.01,2013-06-17 02:28:00,
2013-06-16 22:30:00,69.6,44.9,29.88,West,270,2.5,2.9,41,0.00,,---,0.00,VWS V14.01,2013-06-17 02:30:00,
2013-06-16 22:33:00,69.4,45.4,29.88,NW,315,0.9,3.1,42,0.00,,---,0.00,VWS V14.01,2013-06-17 02:33:00,
2013-06-16 22:39:00,69.3,45.2,29.85,NW,315,1.6,2.2,42,0.00,,---,0.00,VWS V14.01,2013-06-17 02:39:00,
2013-06-16 22:40:00,69.3,44.6,29.85,NW,315,0.9,3.1,41,0.00,,---,0.00,VWS V14.01,2013-06-17 02:40:00,
2013-06-16 22:44:00,69.3,45.8,29.85,West,270,0.9,3.6,43,0.00,,---,0.00,VWS V14.01,2013-06-17 02:44:00,
2013-06-16 22:49:00,69.1,45.7,29.85,WNW,292,1.1,2.2,43,0.00,,---,0.00,VWS V14.01,2013-06-17 02:49:00,
2013-06-16 22:50:00,69.1,45.7,29.85,West,270,2.0,3.6,43,0.00,,---,0.00,VWS V14.01,2013-06-17 02:50:00,
2013-06-16 22:54:00,68.9,45.5,29.85,West,270,1.3,2.2,43,0.00,,---,0.00,VWS V14.01,2013-06-17 02:54:00,
2013-06-16 22:59:00,68.7,45.3,29.85,West,270,0.0,0.0,43,0.00,,---,0.00,VWS V14.01,2013-06-17 02:59:00,
2013-06-16 23:00:00,68.9,45.5,29.85,West,270,0.0,2.5,43,0.00,,---,0.00,VWS V14.01,2013-06-17 03:00:00,
2013-06-16 23:04:00,68.5,45.2,29.85,WNW,292,0.0,1.6,43,0.00,,---,0.00,VWS V14.01,2013-06-17 03:04:00,
2013-06-16 23:09:00,68.5,45.2,29.88,West,270,1.1,2.7,43,0.00,,---,0.00,VWS V14.01,2013-06-17 03:09:00,
2013-06-16 23:10:00,68.5,44.6,29.88,West,270,0.0,1.6,42,0.00,,---,0.00,VWS V14.01,2013-06-17 03:10:00,
2013-06-16 23:14:00,68.4,45.6,29.88,West,270,0.0,2.7,44,0.00,,---,0.00,VWS V14.01,2013-06-17 03:14:00,
2013-06-16 23:19:00,68.2,44.9,29.88,NNW,338,0.0,0.0,43,0.00,,---,0.00,VWS V14.01,2013-06-17 03:19:00,
2013-06-16 23:20:00,68.4,45.6,29.88,NNW,338,0.0,2.7,44,0.00,,---,0.00,VWS V14.01,2013-06-17 03:20:00,
2013-06-16 23:24:00,68.4,47.4,29.85,West,270,2.0,4.9,47,0.00,,---,0.00,VWS V14.01,2013-06-17 03:24:00,
2013-06-16 23:29:00,68.2,47.2,29.85,West,270,1.3,2.2,47,0.00,,---,0.00,VWS V14.01,2013-06-17 03:29:00,
2013-06-16 23:30:00,68.2,46.6,29.85,West,270,0.0,4.9,46,0.00,,---,0.00,VWS V14.01,2013-06-17 03:30:00,
2013-06-16 23:34:00,68.2,46.6,29.85,NW,315,0.0,2.5,46,0.00,,---,0.00,VWS V14.01,2013-06-17 03:34:00,
2013-06-16 23:39:00,68.2,46.6,29.88,NNW,338,0.0,1.6,46,0.00,,---,0.00,VWS V14.01,2013-06-17 03:39:00,
2013-06-16 23:40:00,68.2,46.0,29.88,NW,315,0.9,2.5,45,0.00,,---,0.00,VWS V14.01,2013-06-17 03:40:00,
2013-06-16 23:44:00,68.0,45.9,29.88,West,270,0.0,2.5,45,0.00,,---,0.00,VWS V14.01,2013-06-17 03:44:00,
2013-06-16 23:50:00,68.2,47.8,29.88,WSW,248,1.6,2.9,48,0.00,,---,0.00,VWS V14.01,2013-06-17 03:50:00,
2013-06-16 23:55:00,68.2,47.8,29.88,West,270,2.0,4.3,48,0.00,,---,0.00,VWS V14.01,2013-06-17 03:55:00,